FW1299 Weather Reports


Display with metric or nautical units.
time (UTC)temp
F
wind
direction
speed
MPH
gust
MPH
rain 1hr
in
rain 24hr
in
rain mn
in
humidity
%
barometer
mb
20260508132328 56 188 2.0 6.0 0.00 0.00 0.00 67 1013.7
20260508131329 55 241 1.0 7.0 0.00 0.00 0.00 66 1013.7
20260508130328 55 249 1.0 6.0 0.00 0.00 0.00 75 1013.7
20260508125329 54 206 1.0 5.0 0.00 0.00 0.00 74 1013.6
20260508124328 53 240 1.0 5.0 0.00 0.00 0.00 73 1013.5
20260508123328 53 248 1.0 5.0 0.00 0.00 0.00 78 1013.4
20260508122328 52 276 1.0 5.0 0.00 0.00 0.00 77 1013.4
20260508121329 52 307 2.0 8.0 0.00 0.00 0.00 78 1013.5
20260508120328 51 162 0.0 3.0 0.00 0.00 0.00 82 1013.5
20260508115329 50 231 1.0 5.0 0.00 0.00 0.00 83 1013.6
20260508114330 49 250 1.0 3.0 0.00 0.00 0.00 85 1013.5
20260508113326 48 266 0.0 3.0 0.00 0.00 0.00 86 1013.4
20260508112325 47 216 0.0 0.0 0.00 0.00 0.00 88 1013.4
20260508111324 46 243 0.0 0.0 0.00 0.00 0.00 91 1013.4
20260508110324 44 240 0.0 0.0 0.00 0.00 0.00 94 1013.1
20260508105324 42 260 0.0 0.0 0.00 0.00 0.00 96 1013.1
20260508104324 41 245 0.0 0.0 0.00 0.00 0.00 96 1012.9
20260508103324 40 245 0.0 0.0 0.00 0.00 0.00 95 1012.9
20260508101326 40 231 0.0 0.0 0.00 0.00 0.00 94 1012.8
20260508100327 40 231 0.0 0.0 0.00 0.00 0.00 93 1012.7
20260508095325 41 231 0.0 0.0 0.00 0.00 0.00 93 1012.6
20260508094324 41 231 0.0 0.0 0.00 0.00 0.00 92 1012.7
20260508092321 42 231 0.0 0.0 0.00 0.00 0.00 91 1012.6
20260508091321 43 232 0.0 0.0 0.00 0.00 0.00 89 1012.4
20260508090320 44 232 0.0 0.0 0.00 0.00 0.00 88 1012.3
20260508084320 45 232 0.0 0.0 0.00 0.00 0.00 87 1012.2
20260508083321 45 76 0.0 0.0 0.00 0.00 0.00 86 1011.8
20260508082320 46 76 0.0 0.0 0.00 0.00 0.00 85 1011.8
20260508081320 46 18 0.0 0.0 0.00 0.01 0.00 85 1011.7
20260508075320 47 48 0.0 3.0 0.00 0.03 0.00 85 1011.9
20260508074312 47 4 0.0 2.0 0.00 0.04 0.00 84 1011.7
20260508072311 48 155 0.0 0.0 0.00 0.05 0.00 82 1011.5
20260508070312 48 14 0.0 1.0 0.00 0.07 0.00 82 1010.8
20260508065312 48 33 0.0 2.0 0.00 0.09 0.00 83 1010.7
20260508064311 48 20 0.0 0.0 0.00 0.11 0.00 83 1010.3
20260508063312 48 59 0.0 2.0 0.00 0.13 0.00 84 1010.1
20260508062311 48 335 0.0 1.0 0.00 0.15 0.00 85 1010.2
20260508061311 48 20 0.0 4.0 0.00 0.16 0.00 86 1010.2
20260508060312 48 117 1.0 5.0 0.00 0.19 0.00 88 1010.4
20260508055311 47 216 0.0 2.0 0.00 0.24 0.00 93 1010.5
20260508054311 46 113 0.0 3.0 0.00 0.30 0.00 97 1010.4
20260508053311 45 223 0.0 0.0 0.00 0.32 0.00 97 1010.0
20260508051313 44 238 0.0 0.0 0.00 0.42 0.00 96 1009.6
20260508050316 44 178 0.0 0.0 0.00 0.42 0.00 96 1009.3
20260508045309 44 178 0.0 0.0 0.00 0.42 0.00 96 1009.7
20260508044310 44 178 0.0 0.0 0.00 0.42 0.00 96 1009.7
20260508043309 44 178 0.0 0.0 0.00 0.42 0.00 96 1009.7
20260508042310 44 178 0.0 0.0 0.00 0.42 0.00 96 1009.6
20260508041309 43 178 0.0 0.0 0.00 0.42 0.00 96 1009.4
20260508034309 43 172 0.0 0.0 0.00 0.42 0.42 94 1009.6
20260508033309 43 172 0.0 0.0 0.00 0.42 0.42 93 1009.4
20260508031308 44 171 0.0 0.0 0.00 0.42 0.42 94 1009.4
20260508030306 44 129 0.0 0.0 0.00 0.42 0.42 92 1009.3
20260508024305 44 129 0.0 0.0 0.00 0.42 0.42 90 1009.5
20260508023305 45 129 0.0 0.0 0.00 0.42 0.42 89 1009.6
20260508022306 45 129 0.0 0.0 0.00 0.42 0.42 89 1009.7
20260508021303 46 129 0.0 0.0 0.00 0.42 0.42 87 1009.6
20260508020302 46 129 0.0 0.0 0.00 0.42 0.42 87 1009.6
20260508015305 46 129 0.0 0.0 0.00 0.43 0.42 87 1009.5
20260508014303 47 129 0.0 0.0 0.00 0.44 0.42 82 1009.2
20260508012307 48 129 0.0 0.0 0.00 0.44 0.42 80 1009.1
20260508011303 49 129 0.0 0.0 0.00 0.44 0.42 78 1009.1
20260508010257 50 129 0.0 0.0 0.00 0.44 0.42 79 1009.1
20260508005256 51 129 0.0 0.0 0.00 0.44 0.42 75 1009.0
20260508004256 52 129 0.0 0.0 0.00 0.44 0.42 74 1008.7
20260508003256 53 129 0.0 0.0 0.00 0.44 0.42 75 1008.7
20260507235254 57 128 0.0 0.0 0.00 0.44 0.42 52 1008.3
20260507233252 59 128 0.0 0.0 0.00 0.44 0.42 49 1008.2
20260507232254 60 128 0.0 0.0 0.00 0.44 0.42 48 1008.1
20260507231252 62 150 0.0 0.0 0.00 0.44 0.42 48 1007.9
20260507230251 63 150 0.0 0.0 0.00 0.44 0.42 43 1007.9
20260507225251 65 150 0.0 0.0 0.00 0.44 0.42 43 1007.9
20260507224253 66 150 0.0 1.0 0.00 0.44 0.42 41 1008.0
20260507223251 65 72 0.0 1.0 0.00 0.44 0.42 44 1008.0
20260507220249 67 248 0.0 3.0 0.00 0.44 0.42 43 1008.0
20260507213249 67 312 0.0 5.0 0.00 0.44 0.42 43 1008.1
20260507212250 66 51 0.0 1.0 0.00 0.44 0.42 43 1007.9
20260507211248 66 122 0.0 3.0 0.00 0.44 0.42 42 1007.8
20260507210248 68 308 0.0 3.0 0.00 0.44 0.42 42 1007.7
20260507205247 67 253 0.0 3.0 0.00 0.44 0.42 42 1007.7
20260507204248 67 129 0.0 3.0 0.00 0.44 0.42 42 1007.6
20260507203248 67 47 0.0 3.0 0.00 0.44 0.42 43 1007.8
20260507201248 67 241 1.0 8.0 0.00 0.44 0.42 42 1007.8
20260507200248 68 357 0.0 3.0 0.00 0.44 0.42 40 1007.9
20260507195248 68 241 0.0 3.0 0.00 0.44 0.42 43 1008.0
20260507194248 67 98 1.0 6.0 0.00 0.44 0.42 46 1008.1
20260507193249 67 28 1.0 4.0 0.00 0.44 0.42 44 1008.3
20260507192249 66 212 0.0 3.0 0.00 0.44 0.42 49 1008.3
20260507191247 64 257 2.0 7.0 0.00 0.44 0.42 42 1008.5
20260507190248 65 262 2.0 6.0 0.00 0.44 0.42 49 1008.6
20260507185248 66 245 1.0 7.0 0.00 0.44 0.42 45 1008.7
20260507184247 65 256 3.0 7.0 0.00 0.44 0.42 47 1008.7
20260507183243 65 258 2.0 8.0 0.00 0.44 0.42 48 1008.7
20260507182244 66 231 1.0 4.0 0.00 0.44 0.42 45 1008.8
20260507181241 66 54 1.0 7.0 0.00 0.45 0.42 48 1008.8
20260507174235 64 302 2.0 9.0 0.00 0.45 0.42 49 1009.6
20260507173236 64 225 2.0 7.0 0.00 0.45 0.42 43 1009.7
20260507172234 65 252 1.0 6.0 0.00 0.45 0.42 48 1009.8
20260507171232 65 101 1.0 4.0 0.00 0.45 0.42 46 1010.1
20260507170234 64 327 0.0 4.0 0.00 0.45 0.42 47 1010.2
20260507165226 64 222 0.0 3.0 0.00 0.45 0.42 54 1010.2
20260507164225 64 105 0.0 3.0 0.00 0.46 0.42 53 1010.5
20260507154225 62 139 0.0 3.0 0.00 0.52 0.42 55 1011.1
20260507153225 61 212 1.0 5.0 0.00 0.52 0.42 56 1011.3
20260507152220 61 274 0.0 6.0 0.00 0.52 0.42 59 1011.3
20260507150220 59 315 1.0 4.0 0.00 0.52 0.42 62 1011.6
20260507145220 58 107 0.0 4.0 0.00 0.52 0.42 66 1011.6
20260507144221 59 336 1.0 4.0 0.00 0.52 0.42 67 1011.6
20260507143220 58 250 1.0 6.0 0.00 0.52 0.42 69 1011.7
20260507141220 56 162 1.0 4.0 0.00 0.52 0.42 82 1011.7
20260507140221 55 321 1.0 5.0 0.00 0.52 0.42 92 1011.7
20260507135215 53 204 0.0 4.0 0.00 0.52 0.42 96 1011.7
20260507134212 53 95 0.0 2.0 0.00 0.52 0.42 99 1011.8
20260507133217 52 206 0.0 3.0 0.00 0.52 0.42 98 1011.8